Wind_Speed
86 92 90 86 82 72 69 67 73 68 65 60 58 53 50 46 40 40 43 42 38 33 29 23 21 21 20 21 23 25 28 30
99 99 95 90 82 72 66 65 67 70 69 64 61 56 52 48 44 37 41 40 41 38 28 25 24 23 23 24 26 27 28 31
106 108 102 92 83 76 69 64 70 67 72 66 62 59 52 51 48 42 40 41 40 35 34 30 25 25 27 28 28 29 30 33
107 108 103 97 88 81 71 65 72 67 71 68 63 60 53 51 51 48 41 38 38 38 37 33 30 30 29 30 30 33 33 35
110 106 100 95 91 82 75 67 73 68 67 70 68 64 58 55 53 48 43 40 39 37 38 34 31 31 34 33 33 34 35 36
102 101 100 94 92 85 77 73 73 74 71 69 70 68 65 60 57 52 47 44 43 37 39 38 36 34 36 37 38 36 37 36
83 92 94 92 90 86 77 76 74 78 73 73 71 72 68 65 61 57 54 52 48 43 42 41 40 39 38 38 38 38 35 35
72 80 82 82 84 80 75 78 77 77 76 75 72 72 70 67 63 60 58 56 51 52 46 43 42 41 38 38 41 36 34 35
62 66 69 68 80 78 76 78 76 78 77 77 74 73 72 68 64 64 61 61 54 50 51 49 41 45 44 44 41 35 34 38
51 55 59 62 69 71 76 77 75 74 73 75 76 77 75 69 67 64 64 63 60 57 53 54 54 50 49 44 38 37 36 39
45 46 48 52 56 60 66 72 71 72 75 76 77 73 74 70 69 65 64 63 58 54 51 54 54 50 49 45 41 40 41 43
39 42 46 50 54 58 62 66 70 71 74 78 77 74 76 75 69 65 64 62 61 59 58 56 56 52 48 50 46 43 47 46
34 36 40 44 47 51 58 63 67 69 70 75 80 77 74 74 70 65 63 63 66 65 61 57 59 55 53 52 48 45 49 49
25 26 31 38 43 47 53 60 62 66 67 72 76 76 74 72 70 67 66 66 66 66 65 60 54 51 52 53 54 50 50 49
28 23 29 39 40 46 51 55 60 64 66 69 74 74 73 71 70 69 66 62 57 56 54 56 54 51 56 57 54 54 54 52
22 29 30 33 33 40 51 54 55 59 65 70 71 74 73 72 71 70 69 66 64 60 56 55 56 55 56 56 64 62 60 60
30 23 25 31 36 41 42 47 55 59 64 68 73 72 74 73 72 73 71 70 67 62 59 60 60 60 59 53 64 69 69 67
25 27 30 32 35 37 39 42 46 50 57 64 69 73 78 78 76 76 75 73 72 70 69 68 66 65 66 69 60 75 74 75
31 31 35 37 41 45 50 51 52 51 56 63 69 73 78 80 79 79 80 78 77 75 73 70 70 67 68 66 69 77 76 68
Wind_Direction
252 248 245 246 250 250 252 254 250 247 241 241 245 247 249 250 252 256 254 250 253 246 244 245 255 270 282 290 310 313 321 316
249 248 246 246 248 249 252 249 253 247 241 239 243 241 248 252 251 254 253 246 245 246 235 243 258 270 279 289 298 314 318 322
242 246 246 244 247 251 247 245 250 246 238 239 242 243 245 249 251 249 251 244 241 243 236 247 257 272 282 291 296 305 317 321
240 241 244 244 242 246 246 242 245 245 237 237 237 238 237 241 245 245 246 245 242 238 240 251 265 269 281 290 294 301 309 316
236 238 240 243 242 243 244 240 242 244 237 233 234 234 235 233 238 242 245 242 240 245 249 254 265 272 274 285 292 303 300 311
233 236 238 240 241 241 241 239 236 238 236 233 235 231 234 231 232 236 240 243 247 252 255 257 264 270 272 279 289 296 299 304
231 234 236 237 238 238 238 236 233 235 233 235 232 232 232 234 231 233 236 243 247 253 256 264 265 267 269 274 282 292 294 299
228 230 234 235 236 235 234 232 232 232 230 232 231 230 233 234 234 233 236 237 242 248 251 251 255 264 269 275 277 289 291 293
226 227 230 231 232 231 228 231 232 233 229 227 231 230 230 233 236 237 240 243 243 247 253 260 259 264 268 274 273 279 282 285
224 225 227 228 230 229 228 230 231 231 230 226 229 232 231 231 234 236 238 242 245 250 255 259 261 261 265 271 269 274 277 280
214 215 221 225 226 226 229 228 229 229 226 226 226 230 231 230 233 237 238 239 242 246 250 253 256 262 265 265 266 271 276 277
210 209 215 220 223 222 223 227 227 228 226 225 225 228 231 231 234 239 243 242 241 243 246 249 255 258 262 264 264 267 272 275
206 207 212 214 217 223 222 223 226 228 228 224 223 228 229 231 233 239 244 245 245 244 245 251 257 262 261 260 263 265 268 269
178 193 199 206 214 225 222 221 223 227 229 225 224 227 229 232 235 237 242 246 248 251 249 250 251 249 256 259 260 259 263 265
179 168 211 213 209 221 221 220 221 223 227 226 225 229 231 232 234 237 241 246 247 248 248 242 246 247 257 260 263 265 266 266
199 194 209 207 216 229 221 223 225 226 227 226 226 229 233 236 235 237 240 243 245 247 247 250 254 253 253 262 268 268 270 273
208 217 210 215 223 229 228 227 228 229 231 231 230 230 232 236 239 239 240 243 246 247 247 248 248 251 254 250 258 266 269 270
199 215 215 228 234 231 232 234 234 233 229 230 229 230 233 235 237 240 242 244 246 250 249 250 251 254 257 258 262 265 271 268
209 217 218 223 230 232 233 235 239 240 235 231 232 231 233 235 237 239 242 244 246 248 250 250 252 254 258 257 255 259 264 258
Height
10544 10551 10559 10568 10581 10594 10603 10610 10612 10623 10632 10642 10647 10651 10654 10657 10660 10663 10667 10668 10669 10672 10673 10675 10675 10675 10676 10676 10675 10672 10670 10667
10508 10523 10540 10552 10566 10580 10590 10596 10599 10608 10618 10626 10633 10640 10645 10649 10651 10653 10655 10656 10659 10663 10667 10667 10668 10668 10669 10668 10667 10665 10663 10661
10484 10494 10516 10537 10553 10565 10574 10581 10583 10593 10603 10614 10624 10630 10635 10637 10640 10641 10643 10647 10652 10656 10658 10659 10660 10661 10661 10660 10659 10657 10655 10654
10459 10472 10492 10516 10535 10548 10561 10568 10568 10578 10590 10601 10608 10617 10621 10625 10625 10629 10634 10641 10643 10646 10649 10652 10653 10654 10653 10652 10651 10650 10648 10646
10440 10455 10476 10498 10516 10531 10544 10553 10556 10564 10575 10585 10593 10599 10606 10610 10614 10621 10626 10631 10633 10636 10639 10642 10645 10645 10645 10645 10644 10643 10641 10638
10423 10439 10456 10477 10496 10513 10527 10538 10544 10549 10558 10567 10577 10584 10590 10595 10602 10609 10616 10619 10623 10627 10628 10631 10634 10637 10636 10636 10635 10635 10633 10632
10408 10423 10437 10458 10477 10494 10509 10521 10528 10534 10544 10552 10563 10569 10576 10582 10591 10598 10603 10607 10612 10615 10618 10621 10624 10626 10627 10627 10627 10627 10626 10624
10392 10408 10424 10442 10462 10479 10492 10503 10511 10519 10528 10538 10549 10556 10564 10568 10578 10585 10590 10595 10600 10602 10606 10609 10613 10615 10617 10619 10618 10618 10618 10616
10379 10396 10410 10428 10445 10460 10474 10484 10494 10503 10513 10524 10533 10541 10549 10556 10566 10571 10578 10584 10590 10595 10598 10601 10603 10606 10607 10609 10610 10609 10610 10609
10372 10386 10399 10415 10429 10443 10456 10467 10478 10488 10499 10511 10519 10528 10536 10543 10550 10559 10564 10571 10578 10583 10587 10589 10592 10595 10597 10599 10599 10599 10599 10599
10362 10376 10390 10405 10418 10431 10443 10454 10465 10475 10485 10495 10504 10515 10523 10531 10538 10546 10551 10557 10563 10570 10574 10576 10578 10582 10585 10587 10587 10587 10588 10588
10358 10368 10379 10393 10406 10417 10428 10440 10451 10461 10471 10482 10493 10502 10508 10517 10525 10533 10539 10544 10548 10555 10560 10564 10567 10570 10572 10574 10575 10576 10577 10577
10358 10367 10377 10386 10398 10408 10418 10428 10438 10448 10458 10466 10475 10487 10496 10504 10512 10521 10525 10531 10535 10540 10548 10553 10554 10557 10557 10558 10561 10563 10564 10565
10357 10368 10376 10383 10391 10399 10408 10418 10428 10437 10446 10454 10464 10474 10485 10493 10500 10506 10511 10517 10522 10528 10534 10538 10540 10543 10544 10544 10547 10549 10551 10552
10357 10364 10373 10379 10384 10391 10400 10409 10417 10424 10432 10441 10451 10461 10471 10476 10484 10491 10496 10503 10510 10515 10519 10523 10527 10530 10531 10531 10532 10535 10537 10539
10357 10363 10370 10375 10382 10388 10395 10402 10411 10416 10422 10429 10439 10448 10456 10462 10468 10476 10481 10487 10493 10498 10505 10510 10514 10517 10518 10518 10518 10519 10523 10526
10355 10360 10365 10371 10375 10380 10385 10391 10399 10406 10412 10420 10427 10435 10443 10448 10455 10460 10466 10472 10478 10483 10489 10494 10497 10501 10503 10505 10502 10501 10507 10511
10353 10357 10360 10366 10369 10373 10378 10382 10387 10392 10399 10406 10413 10421 10427 10433 10439 10444 10450 10457 10462 10467 10472 10477 10482 10484 10487 10488 10486 10486 10490 10492
10348 10351 10355 10359 10362 10366 10370 10374 10378 10382 10388 10393 10399 10405 10411 10417 10424 10428 10433 10439 10443 10447 10453 10459 10463 10469 10470 10472 10470 10469 10471 10471